Weather in Pervomayskiy

Russia / Kemerovo Oblast     56°10′19″N   88°01′17″E
temp.,
°C
wind,
m/s
gust,
m/s
humid.,
%
clouds,
%
prec.,
mm/h
press.,
hPa
HPBL,
m
8 march, mon
mon801:00−14sw34922 0.0 102353
04:00−14sse228852 0.0 102220
07:00−12se468776 0.0 1021106
10:00−8se5886100 0.0 1017218
13:00−3sse5986100 0.0 1013405
16:00+1s41288100 0.0 1008866
19:000ssw51680100 0.0 1006835
22:00−1sw71681100 0.0 10051071
9 march, tue
tue901:00−2wsw81590100 0.1 10071028
04:00−7w61288100 0.3 1012693
07:00−11wsw41291100 0.4 1017462
10:00−10wsw61187100 0.0 1021736
13:00−8wsw71280100 0.0 1022932
16:00−7wsw7127884 0.0 10231055
19:00−9sw5138566 0.0 1023485
22:00−9sw5138590 0.0 1022525
10 march, wed
wed1001:00−9ssw5148694 0.0 1021530
04:00−12ssw4128832 0.0 1020294
07:00−11ssw5138651 0.0 1019388
10:00−8sw6148072 0.0 1018574
13:00−4sw6107583 0.0 1017760
16:00−3wsw487791 0.0 1016819
19:00−5s128894 0.0 101521
22:00−6se359090 0.0 101292
11 march, thu
thu1101:00−4se598696 0.0 1007180
04:00−1s51477100 0.0 1001431
07:00+1sw81689100 0.5 999965
10:00+1sw9179999 0.1 10001047
13:00−2wsw10168198 0.3 10041130
16:00−5wsw81383100 0.0 10091017
19:00−6wsw61485100 0.0 1011717
22:00−6sw61586100 0.0 1014884
12 march, fri
fri1201:00−8wsw6168599 0.0 1015828
04:00−10sw4138749 0.0 1017432
07:00−10sse498660 0.0 1014227
10:00−5ssw81783100 0.3 10101458
13:00−5wsw101669100 0.7 10111704
16:00−9wsw8137967 0.1 10141347
19:00−12wsw5128783 0.2 1015812
22:00−13wsw5129199 0.0 1017852